www.pogodaiklimat.ru
ПОГОДА в Путталаме
Время
(UTC), дата
18 19.09
21 19.09
00 20.09
03 20.09
06 20.09
09 20.09
12 20.09
15 20.09
18 20.09
21 20.09
00 21.09
03 21.09
06 21.09
09 21.09
12 21.09
15 21.09
18 21.09
21 21.09
00 22.09
03 22.09
06 22.09
09 22.09
12 22.09
15 22.09
21 22.09
00 23.09
03 23.09
06 23.09
09 23.09
12 23.09
15 23.09
18 23.09
21 23.09
00 24.09
03 24.09
06 24.09
09 24.09
12 24.09
15 24.09
18 24.09
21 24.09
00 25.09
03 25.09
06 25.09
09 25.09
12 25.09
15 25.09
18 25.09
21 25.09
00 26.09
03 26.09
06 26.09
09 26.09
12 26.09
15 26.09
Ветер
(напр.,м/с)
Видим. Явления Облачность Т
(С)
Тd
(С)
f
(%)
Тe
(С)
Тes
(С)
Комфортность P
(гПа)
Po
(гПа)
Тmin
(С)
Tmax
(С)
R
(мм)
R24
(мм)
S
(см)
ЮЗ 5 20 км 6/3 540 м
[Cu hum Ci fib]
+27.4 +23.9 81 +38 +38 очень
душно
1006.9 1006.7
ЮЗ 5 20 км 3/3 540 м
[Cu hum]
+27.3 +24.3 84 +38 +38 очень
душно
1005.5 1005.3
ЮЗ 6 20 км 4/4 540 м
[Cu hum]
+27.2 +24.6 86 +39 +39 очень
душно
1005.9 1005.7
ЮЗ 5 20 км 8/5 540 м
[Cu hum Cs]
+28.4 +24.4 79 +40 +42 очень
душно
1007.9 1007.7 +26.9
ЮЗ 5 20 км 6/4 540 м
[Cu hum Ci fib]
+30.6 +24.6 70 +43 +49 опасность
перегрева
1007.6 1007.4
ЮЗ 7 20 км 8/8 540 м
[Cu med, cong Ci fib]
+30.6 +24.9 72 +44 +45 опасность
перегрева
1005.7 1005.5
ЮЗ 5 20 км 6/6 540 м
[Cu hum Ac trans Ci fib]
+27.8 +24.0 80 +39 +39 очень
душно
1005.8 1005.6 +31.3
ЮЗ 3 20 км 6/6 540 м
[Cu hum Ci fib]
+27.4 +24.5 84 +39 +39 очень
душно
1007.8 1007.6
ЮЗ 6 20 км 8/5 540 м
[Cu hum Ci fib]
+27.2 +24.6 86 +39 +39 очень
душно
1007.8 1007.6
ЮЗ 5 20 км 9/9 540 м
[Cu hum]
+27.4 +24.5 84 +39 +39 очень
душно
1006.2 1006.0
ЮЗ 2 20 км {ливн. дождь} 3/3 540 м
[Cu hum]
+26.4 +25.0 92 +38 +38 очень
душно
1006.5 1006.3 0.9
ЮЗ 8 20 км 8/4 540 м
[Cu hum Cs]
+28.2 +24.2 79 +39 +40 очень
душно
1008.5 1008.3 +25.0 0.9
ЮЗ 5 20 км 8/8 540 м
[Cu hum Cs]
+29.6 +24.5 74 +42 +44 опасность
перегрева
1008.3 1008.1 0.9
ЮЗ 7 20 км 6/4 540 м
[Cu hum Cs]
+30.0 +23.3 67 +40 +43 очень
душно
1006.3 1006.1
ЮЗ 3 15 км слаб. ливневой дождь 10/9 540 м
[Cu med, cong Ac cuf]
+28.0 +24.9 83 +40 +40 очень
душно
1006.3 1006.1 +30.7 0.0
ЮЗ 3 15 км слаб. ливневой дождь 10/4 540 м
[Cu med, cong Ac As]
+24.6 +23.7 95 +33 +33 очень
душно
1008.6 1008.4 5
ЮЗ 5 20 км {ливн. дождь} 3/3 540 м
[Cu hum]
+26.8 +24.5 87 +38 +38 очень
душно
1008.5 1008.3 0.5
ЮЗ 2 15 км слаб. ливневой дождь 10/9 540 м
[Cu hum Ac As]
+26.1 +25.1 94 +37 +37 очень
душно
1007.5 1007.3 0.4
ЮЗ 3 15 км гроза, ливневой дождь 10/6 540 м
[Cb cap Ac As]
+24.5 +24.1 98 +34 +34 очень
душно
1007.5 1007.3 3
ЮЗ 5 20 км {гроза} 8/8 540 м
[Cu med, cong Ac trans Ci fib]
+27.4 +24.2 83 +38 +39 очень
душно
1009.4 1009.2 +24.2 0.3 9.2
ЮЗ 3 10 км слаб. морось {гроза} 10/9 420 м
[Cb cap]
+26.9 +25.7 93 +40 +41 очень
душно
1009.4 1009.2 2 10.6
ЮЗ 3 10 км 9/3 540 м
[Cu hum Ac As]
+27.4 +23.5 79 +37 +41 очень
душно
1007.7 1007.5
ЮЗ 6 10 км 10/8 540 м
[Cu hum Ac As]
+26.9 +24.1 85 +37 +37 очень
душно
1007.5 1007.3 +28.8
ЮЗ 10 20 км 9/5 540 м
[Cu hum Ac As]
+26.6 +24.0 86 +37 +37 очень
душно
1008.4 1008.2
Ю 6 20 км 5/5 540 м
[Cu hum]
+26.4 +24.4 89 +37 +37 очень
душно
1008.1 1007.9
ЮЗ 4 20 км 8/3 540 м
[Cu hum Ac trans Cs]
+26.6 +24.3 87 +37 +37 очень
душно
1008.5 1008.3
ЮЗ 3 20 км 5/3 500 м
[Cu hum Ac trans Ci fib]
+28.4 +24.3 78 +40 +43 очень
душно
1009.8 1009.6 +26.1 1.7
ЮЗ 7 20 км 6/4 540 м
[Cu hum Ac trans Ci fib]
+30.6 +24.5 70 +43 +46 опасность
перегрева
1009.7 1009.5
ЮЗ 6 20 км 4/4 540 м
[Cu hum]
+30.2 +24.2 70 +42 +45 опасность
перегрева
1007.8 1007.6
ЮЗ 5 20 км 5/4 540 м
[Cu hum Ci fib]
+28.5 +24.2 78 +40 +40 очень
душно
1007.4 1007.2 +31.2
Ю 2 20 км 3/3 540 м
[Cu Sc]
+27.3 +24.3 84 +38 +38 очень
душно
1009.1 1008.9
Ю 5 20 км 8/8 540 м
[Cu hum]
+27.2 +24.7 86 +39 +39 очень
душно
1009.8 1009.6
Ю 4 20 км 6/6 540 м
[Cu Sc]
+26.9 +24.3 86 +38 +38 очень
душно
1009.0 1008.8
Ю 1 20 км 9/8 540 м
[Cu hum]
+27.0 +24.1 84 +37 +37 очень
душно
1009.3 1009.1
Ю 3 20 км 8/6 540 м
[Cu hum Cs]
+28.4 +24.5 79 +40 +42 очень
душно
1010.7 1010.5 +26.7
ЮЗ 7 20 км 6/5 540 м
[Cu hum Cs]
+31.0 +23.9 66 +43 +45 опасность
перегрева
1010.7 1010.5
ЮЗ 8 20 км 9/8 540 м
[Cu med, cong]
+29.3 +24.1 74 +41 +41 опасность
перегрева
1008.6 1008.4
Ю 6 20 км 9/5 420 м
[Frnb Cs]
+28.4 +24.1 78 +40 +40 очень
душно
1008.4 1008.2 +31.2
Ю 9 20 км 6/0
[Ac trans Cs]
+27.4 +24.1 82 +38 +38 очень
душно
1010.0 1009.8
Ю 2 20 км 6/6 540 м
[Cu hum Cs]
+27.4 +24.5 84 +39 +39 очень
душно
1010.5 1010.3
Ю 1 10 км слаб. ливневой дождь 10/9 540 м
[Cu med, cong]
+26.2 +25.1 94 +38 +38 очень
душно
1008.6 1008.4 0.0
Ю 1 20 км {ливн. дождь} 9/8 540 м
[Cu hum]
+27.0 +24.4 86 +38 +38 очень
душно
1008.4 1008.2 0.0
ЮЗ 3 20 км 10/3 540 м
[Cu hum As trans]
+28.4 +25.0 82 +41 +43 опасность
перегрева
1011.1 1010.9 +26.0 0.0
ЮЗ 2 20 км 10/4 540 м
[Cu hum As trans]
+28.8 +24.8 79 +41 +46 опасность
перегрева
1011.1 1010.9 0.0
ЮЗ 2 20 км слаб. дождь 10/1 540 м
[Cu hum As op]
+28.4 +24.7 80 +40 +43 очень
душно
1008.8 1008.6 0.0
Ю 2 20 км слаб. дождь 10/4 540 м
[Cu hum Ac As]
+27.7 +23.7 79 +38 +38 очень
душно
1008.2 1008.0 +29.8 0.0
штиль 0 20 км 10/3 540 м
[Cu hum As op]
+26.4 +24.4 89 +37 +37 очень
душно
1009.7 1009.5
штиль 0 20 км слаб. дождь 9/4 540 м
[Cu hum As op]
+25.9 +24.6 93 +37 +37 очень
душно
1010.3 1010.1 0.0
штиль 0 20 км слаб. дождь 8/5 540 м
[Cu hum As op]
+25.6 +24.1 91 +35 +35 очень
душно
1008.5 1008.3 0.0
штиль 0 20 км 6/6 540 м
[Cu hum]
+25.6 +24.1 91 +35 +35 очень
душно
1008.4 1008.2
ЮЗ 6 20 км 6/6 540 м
[Cu hum]
+28.5 +24.2 78 +40 +41 очень
душно
1010.3 1010.1 +25.5 0.0
ЮЗ 5 20 км 5/3 540 м
[Cu hum Ac trans]
+31.0 +24.4 68 +43 +50 опасность
перегрева
1010.5 1010.3 0.0
ЮЗ 5 20 км 4/3 540 м
[Cu hum Ci sp]
+31.8 +24.3 65 +44 +49 опасность
перегрева
1007.8 1007.6
ЮЗ 4 20 км 4/1 540 м
[Cu hum Ci sp]
+29.3 +23.9 73 +41 +41 опасность
перегрева
1008.0 1007.8 +32.1
Ю 1 20 км 3/3 540 м
[Cu hum]
+27.6 +24.7 84 +39 +39 очень
душно
1010.1 1009.9
Местоположение метеостанции Путталам (Шри Ланка): широта 8.03 долгота 79.83 высота над уровнем моря 2 м.
В архиве по умолчанию представлена погода в Путталаме за последнюю неделю. Архивные данные за месяц целиком и за предыдущие месяцы, начиная с января 2011 года, Вы можете получить, выбрав интересующий диапазон дат из раскрывающегося списка и нажав кнопку "Найти!".
*Определитесь, кто Вы:
Внимание! Время в таблицах - всемирное. Для получения местного времени необходимо прибавить поправку, которая равна 6 ч.
Смотрите также архив погоды в соседних городах и на ближайших метеорологических станциях:
Партнеры нашего сайта:      
Пояснения к столбцам:
  • Ветер - указаны скорость ветра в м/с - средняя за 10 мин, порывы в срок и между сроками (в фигурных скобках) и направление, откуда дует ветер: С - северный,
  • СВ - северо-восточный, В - восточный, ЮВ - юго-восточный, Ю - южный, ЮЗ - юго-западный, З - западный, СЗ - северо-западный.
  • Видимость - горизонтальная дальность видимости в метрах или километрах. При видимости от 1 до 10 км при отсутствии осадков обычно наблюдается дымка, при ухудшении видимости до 1 км и менее - туман. В сухую погоду видимость может ухудшаться дымом, пылью или мглою.
  • Явления - указаны атмосферные явления, наблюдавшиеся в срок или в последний час перед сроком; фигурными скобками обозначены явления, наблюдавшиеся между сроками (за 1-3 часа до срока); квадратными скобками обозначены град или гололедные отложения с указанием их диаметра в мм.
  • Облачность - указаны через наклонную черту общая и нижняя облачность в баллах и высота нижней границы облаков в метрах; квадратными скобками обозначены формы облаков: Ci - перистые, Cs - перисто-слоистые, Cc - перисто-кучевые, Ac - высококучевые, As - высокослоистые, Sc - слоисто-кучевые, Ns - слоисто-дождевые, Cu - кучевые, Cb - кучево-дождевые. Подробнее классификацию облаков см. в Атласе облаков (PDF).
  • T - Температура воздуха - температура, измеренная на высоте 2 м над землей.
  • Td - Температура точки росы - температура, при понижении до которой содержащийся в воздухе водяной пар достигнет насыщения.
  • f - Относительная влажность воздуха - влажноcть воздуха, измеренная на высоте 2 м над землей.
  • Te - Эффективная температура - температура, которую ощущает одетый по сезону человек в тени. Характеристика душности погоды. При расчете учитывается влияние влажности воздуха и скорости ветра на теплоощущения человека.
  • Tes - Эффективная температура на солнце - температура, которую ощущает человек, с поправкой на солнечный нагрев. Характеристика знойности погоды. Зависит от высоты солнца над горизонтом, облачности и скорости ветра. Ночью, в пасмурную погоду, а также при ветре 12 м/с и более поправка равна нулю.
  • P - Атмосферное давление - приведенное к уровню моря атмосферное давление.
  • Po - Атмосферное давление - измеренное на уровне метеостанции атмосферное давление.
  • Tmin - Минимальная температура - минимум температуры воздуха на высоте 2 м над землей.
  • Tmax - Максимальная температура - максимум температуры воздуха на высоте 2 м над землей.
  • R - Количество осадков - Количество выпавших осадков за период времени, мм. При наведении курсора мыши на число - период времени, за который выпало указанное количество осадков.
  • R24 - Количество осадков - Количество выпавших осадков за 24 часа, мм.
  • S - Снежный покров - Высота снежного покрова, см. При наведении курсора мыши на число - состояние снежного покрова и степень покрытия местности в баллах.